Location: Basserveld
(52.8138°N, 6.0388°E)
Time: 13:55:48
(UTC+00:00)

Daily predictions for brighter satellites

Satellite Brightness Start Highest point End
(mag) Time Altitude Azimuth Time Altitude Azimuth Time Altitude Azimuth
NOSS 3-1 (C) 4.1 16:24:25 10° NW 16:30:25 45° NNE 16:37:57 10° E
Thor Agena Rocket 3.5 16:29:51 10° SSE 16:34:50 67° ENE 16:39:51 10° NNW
Cosmos 1980 Rocket 3.5 16:34:31 10° NNW 16:38:39 20° NNE 16:42:47 10° ENE
NOSS 2-1 (E) 3.8 16:36:12 10° NNW 16:39:02 29° NNE 16:42:19 10° E
Cosmos 1452 Rocket 4.2 16:34:20 10° SSE 16:39:03 35° ESE 16:43:49 10° NE
SPOT 1/Viking Rocket 4.1 16:34:26 10° SE 16:39:05 36° ENE 16:43:44 10° N
IGS 5A 3.8 16:35:12 10° S 16:39:09 68° WSW 16:43:08 10° NNW
Meteor 1-16 Rocket 4.2 16:34:35 10° N 16:39:51 57° ENE 16:45:11 10° SSE
NOSS 2-1 (C) 3.7 16:37:10 10° NNW 16:40:02 32° NNE 16:43:26 10° E
Cosmos 1633 Rocket 3.4 16:39:21 10° NNW 16:43:39 70° W 16:47:57 10° S
Cosmos 1484 Rocket 3.1 16:41:21 10° S 16:44:38 58° WSW 16:47:58 10° NNW
Cosmos 332 Rocket 4.1 16:39:54 10° NNW 16:44:41 73° WSW 16:49:28 10° SSE
Cosmos 1821 Rocket 4.1 16:39:11 10° N 16:45:19 57° ENE 16:51:19 10° SSE
Cosmos 1869 Rocket 4.2 16:44:37 10° N 16:48:39 34° ENE 16:52:37 10° SE
Meteor 1-23 Rocket 4.3 16:45:28 10° S 16:50:59 58° E 16:56:29 10° NNE
Meteor 1-28 Rocket 2.8 16:52:28 10° NNE 16:55:46 85° ESE 16:59:03 10° SSW
Cosmos 2219 Rocket 4.2 16:53:52 10° NNW 16:56:02 12° N 16:58:12 10° NNE
SJ 16-02 4.3 16:53:15 10° NW 16:56:12 18° W 16:59:09 10° SW
DNEPR-1 R/B 3.9 16:52:18 10° SSW 16:56:29 46° SE 17:00:16 12° NE
SAR-Lupe-1 4.5 16:53:36 10° SE 16:56:56 39° ENE 17:00:18 10° N
Landsat 7 3.8 16:55:05 10° SSE 16:59:44 88° WSW 17:04:26 10° NNW
Cosmos 1697 Rocket 3.2 16:56:39 10° NNW 17:01:59 40° NE 17:07:17 10° ESE
Cosmos 1328 Rocket 4.0 16:57:46 10° SSW 17:02:07 64° WNW 17:06:31 10° N
CZ-2D R/B 4.1 16:59:14 10° ESE 17:02:30 28° ENE 17:05:48 10° N
Resurs 1-3 4.2 17:01:06 10° SE 17:04:59 34° ENE 17:08:52 10° N
CZ-2D R/B 2.6 17:02:11 10° SSE 17:05:18 71° ENE 17:08:24 10° N
Meteor 1-21 4.2 17:00:56 10° S 17:06:29 69° E 17:12:04 10° NNE
Cosmos 2360 Rocket 4.2 17:05:13 10° NNW 17:07:32 12° N 17:09:52 10° NNE
SMAP 3.5 17:03:23 10° S 17:08:01 67° WSW 17:12:41 10° NNW
NOSS 2-1 (D) 3.1 17:04:58 10° NW 17:08:05 53° NE 17:11:59 10° ESE
BREEZE-M DEB (TANK) 3.6 17:03:36 10° WSW 17:09:06 59° S 17:12:22 12° E
Cosmos 1833 Rocket 3.9 17:07:57 10° SSE 17:12:12 22° ESE 17:15:11 15° ENE
SL-16 R/B 4.0 17:09:43 10° NNW 17:12:56 15° NNE 17:15:22 12° NE
Cosmos 2181 Rocket 4.0 17:07:13 10° S 17:13:20 71° E 17:19:36 10° NNE
SAR-Lupe-4 3.5 17:09:48 10° SSE 17:13:20 60° ENE 17:16:53 10° N
IRS-1C 4.2 17:09:13 10° SSE 17:14:33 86° WSW 17:19:55 10° NNW
Cosmos 1603 3.7 17:09:17 10° SSW 17:14:55 82° ESE 17:20:34 10° NNE
Cosmos 2056 Rocket 4.4 17:10:41 10° SW 17:15:34 45° NW 17:20:29 10° NNE
USA 267 3.4 17:09:54 12° E 17:15:58 65° N 17:22:26 10° WNW
BREEZE-M DEB (TANK) 4.4 17:17:02 10° WSW 17:19:36 29° S 17:26:23 10° SE
Cosmos 1934 Rocket 4.3 17:15:13 10° N 17:21:03 43° ENE 17:26:55 10° SE
ARIANE 5 R/B 2.9 17:19:14 10° S 17:24:26 71° WSW 17:29:39 10° NNW
YAOGAN 1 2.7 17:22:20 10° SE 17:26:27 50° ENE 17:30:35 10° N
SL-16 R/B 3.3 17:23:59 10° N 17:29:58 53° WNW 17:35:55 10° SW
SKYMED 2 3.9 17:26:00 10° NNE 17:30:12 45° E 17:34:22 10° S
ATLAS 5 CENTAUR R/B 2.2 17:27:31 10° W 17:30:18 29° NNW 17:32:28 16° NNE
Okean 2 3.1 17:26:59 10° S 17:30:48 73° E 17:34:39 10° NNE
Cosmos 1953 4.1 17:28:16 10° NNW 17:31:35 31° W 17:34:52 10° SSW
MOS 1 Rocket 4.3 17:27:22 10° S 17:32:26 54° W 17:37:16 10° NNW
Cosmos 1943 4.1 17:27:03 10° WSW 17:32:30 47° NW 17:38:00 10° NNE
Cosmos 1515 Rocket 3.8 17:28:14 10° SSW 17:32:39 72° WNW 17:37:06 10° N
Cosmos 1703 3.9 17:31:00 10° SSW 17:34:12 45° WNW 17:37:25 10° N
Cosmos 2239 Rocket 4.4 17:29:39 10° N 17:35:58 80° ENE 17:42:12 10° SSE
Cosmos 1331 Rocket 4.3 17:37:18 10° SW 17:42:24 65° WNW 17:47:34 10° NNE
COSMO-SKYMED 1 2.9 17:40:52 22° NE 17:43:02 37° E 17:46:52 10° SSE
ISS -3.6 17:39:46 10° WSW 17:43:05 63° S 17:44:16 35° E
Okean 3 3.2 17:43:47 10° S 17:47:49 75° E 17:51:52 10° NNE
RESURS DK-1 2.2 17:43:50 10° SSW 17:47:50 89° ESE 17:50:11 24° NNE
USA 276 2.2 17:48:42 10° WSW 17:50:58 41° S 17:51:03 41° SSE
Nadezhda 3 Rocket 3.9 17:46:53 10° S 17:52:59 75° E 17:59:11 10° NNE
Cosmos 2237 Rocket 4.4 17:50:54 10° NW 17:53:43 14° NNW 17:56:33 10° NNE
ATLAS 3B R/B 3.8 17:48:42 10° WNW 17:55:56 37° N 18:00:15 22° NE
Cosmos 1733 Rocket 3.0 17:51:42 10° N 17:56:04 60° ENE 18:00:21 10° SSE
Cosmos 1302 Rocket 3.9 17:51:07 10° SSW 17:56:22 81° ESE 18:00:38 16° NNE
NOSS 3-4 (A) 3.4 17:51:46 10° WSW 17:57:08 68° NW 18:01:08 22° NE
NOSS 3-4 (C) 3.4 17:51:54 10° WSW 17:57:18 68° NW 18:01:19 22° NE
SL-16 R/B 4.2 17:55:45 10° WNW 17:59:57 21° NNW 18:04:09 10° NNE
Cosmos 1340 Rocket 4.3 17:56:56 10° NNW 18:00:30 38° W 18:04:04 10° SSW
SJ-7 4.1 17:57:11 10° SSE 18:00:58 88° ENE 18:04:46 10° NNW
Cosmos 2322 Rocket 3.8 17:57:58 10° NNW 18:01:32 17° NNE 18:02:07 16° NNE
Radarsat Rocket 3.9 17:56:54 10° SSE 18:02:59 89° ENE 18:08:51 10° NNW
Cosmos 2333 Rocket 3.6 18:01:04 10° NNW 18:05:15 20° NNE 18:05:40 20° NNE
SL-19 R/B 4.5 18:00:10 10° SSE 18:06:27 85° ENE 18:12:47 10° NNW
Resurs 01 Rocket 1.5 18:02:57 10° SSE 18:07:14 59° ENE 18:11:33 10° N
NOSS 3-1 (A) 3.9 18:02:43 10° NW 18:09:12 61° NE 18:13:44 27° ESE
CARTOSAT-1 3.3 18:05:54 10° SSE 18:10:06 78° ENE 18:14:21 10° NNW
SWAS 4.1 18:06:21 10° NNW 18:10:23 69° NE 18:11:17 50° ESE
Cosmos 2228 Rocket 4.1 18:06:34 10° SSE 18:09:10 29° SE 18:09:10 29° SE
USA 59 Rocket 0.9 18:12:26 10° WNW 18:15:38 40° SW 18:19:45 10° SSE
COSMOS 2455 2.8 18:10:39 10° NW 18:16:44 87° NE 18:21:12 19° SE
PSLV R/B 3.6 18:14:48 10° S 18:18:56 72° WSW 18:23:07 10° NNW
Cosmos 1992 Rocket 3.8 18:15:24 10° SSW 18:20:34 75° ESE 18:22:50 34° NE
Cosmos 1452 Rocket 4.5 18:15:58 10° SW 18:21:00 45° NW 18:25:32 13° NNE
NOSS 3-1 (C) 4.0 18:15:00 10° NW 18:21:48 81° SW 18:30:21 10° SE
USA 215 4.1 18:21:42 29° ESE 18:22:25 30° SE 18:28:00 10° S
Cosmos 1980 Rocket 2.1 18:18:10 10° NNW 18:23:45 64° NE 18:25:37 41° ESE
Cosmos 1486 Rocket 3.9 18:19:15 10° NNW 18:24:35 71° ENE 18:26:50 35° SE
Cosmos 2369 4.0 18:19:20 10° NNW 18:24:45 43° NE 18:25:07 42° ENE
NOAA 6 4.1 18:19:55 10° S 18:25:01 76° WSW 18:30:11 10° NNW
NOSS 2-1 (E) 4.2 18:24:45 10° WNW 18:27:58 44° SW 18:29:59 24° S
NOSS 2-1 (C) 4.5 18:25:45 10° WNW 18:28:55 38° SW 18:31:37 17° S
Cosmos 1354 Rocket 4.5 18:26:11 10° NNW 18:30:35 42° NE 18:30:35 42° NE
IRAS Rocket 4.3 18:26:24 10° SSE 18:31:56 81° WSW 18:37:33 10° NNW
CSL-04 Rocket 3.9 18:35:34 46° NE 18:35:34 46° NE 18:40:00 10° N
USA 305 4.5 18:34:13 10° SSW 18:35:59 22° S 18:35:59 22° S
Cosmos 1605 Rocket 3.9 18:31:37 10° N 18:38:04 82° ENE 18:44:25 10° SSE
USA 229 DEB 4.5 18:32:42 10° NW 18:39:10 40° NNE 18:40:59 35° NE
Cosmos 2219 Rocket 4.0 18:38:47 10° NNW 18:41:41 17° NNE 18:41:41 17° NNE
Cosmos 1697 Rocket 3.5 18:40:39 10° NW 18:46:06 51° WSW 18:51:33 10° S
Cosmos 2360 Rocket 3.8 18:49:15 10° NNW 18:52:16 21° NNE 18:52:16 21° NNE
Cosmos 1777 Rocket 3.9 18:49:36 10° NNW 18:54:50 86° WSW 18:55:18 74° S
Cosmos 1833 Rocket 2.7 18:49:51 10° SW 18:55:30 78° WNW 18:56:54 52° NNE
Cosmos 1862 Rocket 3.9 18:51:07 10° SSW 18:55:31 65° WNW 18:55:44 64° WNW
SL-16 R/B 3.3 18:53:33 10° NNW 18:57:12 31° N 18:57:12 31° N
USA 267 3.2 18:57:14 55° SE 18:58:54 85° SSW 19:05:30 10° WNW
Meteor 1-24 Rocket 4.3 18:55:15 10° S 18:59:07 44° SSE 18:59:07 44° SSE
Cosmos 909 Rocket 4.1 18:54:57 10° SSW 19:02:21 76° SE 19:03:16 65° ENE
Okean 1-7 4.4 19:02:51 10° SSW 19:05:06 30° SW 19:05:06 30° SW
ATLAS 5 CENTAUR R/B 3.9 19:11:25 10° NW 19:11:51 12° NW 19:11:51 12° NW
COSMO-SKYMED 1 4.3 19:17:10 25° NW 19:18:14 28° WNW 19:21:46 10° WSW
ISS -0.7 19:16:26 10° W 19:17:13 16° W 19:17:13 16° W
BREEZE-M DEB (TANK) 4.1 19:17:16 10° WSW 19:19:37 48° SW 19:19:37 48° SW
Resurs 01 Rocket 4.1 19:40:45 10° SW 19:43:58 20° W 19:47:13 10° NW
Cosmos 2322 Rocket 4.0 19:41:41 10° NNW 19:43:54 23° NNW 19:43:54 23° NNW
ATLAS 3B R/B 3.4 19:40:38 10° NW 19:47:30 51° N 19:47:30 51° N
Cosmos 2333 Rocket 3.8 19:45:06 10° NNW 19:47:41 27° NNW 19:47:41 27° NNW
NOSS 3-1 (A) 4.5 19:53:25 10° NW 20:00:15 53° SW 20:01:10 51° SSW
USA 215 4.3 20:09:03 36° SW 20:09:03 36° SW 20:12:41 10° SW
Cosmos 1980 Rocket 3.9 20:02:40 10° NW 20:07:21 28° WSW 20:07:26 28° WSW
